Miscellaneous Local Product
Issued by NWS Hastings, NE

Home | Current Version | Previous Version | Text Only | Print | Product List | Glossary Off
Versions: 1 2 3 4 5 6 7 8 9 10 11 12 13 14 15 16 17 18 19 20 21 22 23 24 25 26 27 28 29 30 31 32 33 34 35 36 37 38 39 40 41 42 43 44 45 46 47 48 49 50

000
AXUS43 KGID 230202
MISGRI

GID CWA HOURLY WEATHER ROUNDUP
NATIONAL WEATHER SERVICE HASTINGS NE
900 PM CDT FRI AUG 22 2014

NOTE: "FAIR" INDICATES FEW OR NO CLOUDS BELOW 12,000 FEET WITH NO
SIGNIFICANT WEATHER AND/OR OBSTRUCTIONS TO VISIBILITY.

...SOUTH CENTRAL NEBRASKA...

CITY           SKY/WX    TMP DP  RH WIND       PRES   REMARKS
GRAND ISLAND   CLOUDY    80  75  84 E8        29.92S
HASTINGS       MOCLDY    80  71  74 E7        29.93R
KEARNEY        CLOUDY    79  73  83 E10       29.94R
ORD            MOCLDY    77  67  71 NE8       29.93S
YORK           PTCLDY    75 N/A N/A SE7       29.92S
AURORA         MOCLDY    79  78  97 SE7       29.92S
LEXINGTON      CLOUDY    80  73  81 E10       29.93R
HOLDREGE       CLOUDY    78  73  85 E9        29.94R THUNDER
HEBRON         PTCLDY    80  69  70 E7        29.93R

...NEBRASKA PANHANDLE...

CITY           SKY/WX    TMP DP  RH WIND       PRES   REMARKS
CHADRON        CLOUDY    74  56  53 S9        29.98R
ALLIANCE       LGT RAIN  64  61  90 S6        30.05R
SCOTTSBLUFF    LGT RAIN  64  62  93 E13       30.04R
SIDNEY         LGT RAIN  63  60  90 NW10      30.08S

...WESTERN AND NORTH CENTRAL NEBRASKA...

CITY           SKY/WX    TMP DP  RH WIND       PRES   REMARKS
VALENTINE      MOCLDY    73  62  68 CALM      29.98S
AINSWORTH      CLOUDY    72  68  88 CALM      29.99F
ONEILL         MOCLDY    74  70  87 E7        29.98S
BROKEN BOW     CLOUDY    80  69  69 E13       29.96R
IMPERIAL       LGT RAIN  70  65  84 N9        29.95F
NORTH PLATTE   LGT RAIN  72  66  81 N12       29.95F
MCCOOK         TSTM      71  63  75 E12       29.91R

...EASTERN NEBRASKA...

CITY           SKY/WX    TMP DP  RH WIND       PRES   REMARKS
NORFOLK        MOCLDY    79  72  79 E20G25    29.95R THUNDER
SO SIOUX CITY  CLOUDY    81  75  82 E5        29.93S
TEKAMAH        CLOUDY    74  71  91 N3        29.91F
COLUMBUS       MOCLDY    54 N/A N/A NE6       29.94R
ALBION         CLOUDY    78  66  66 E13G20    29.96R
OMAHA EPPLEY   CLOUDY    77  74  90 SE6       29.91F
OFFUTT AFB     MOCLDY    77  77 100 E5        29.91F
MILLARD        MOCLDY    79  76  90 SE8       29.91S
LINCOLN        MOCLDY    83  69  62 SE13      29.91S
NEBRASKA CITY  MOCLDY    75  75 100 E6        29.93S
BEATRICE       MOCLDY    78  73  83 E6        29.91S
FALLS CITY     CLOUDY    77  74  90 NE6       29.91S

...NORTHERN KANSAS...

CITY           SKY/WX    TMP DP  RH WIND       PRES   REMARKS
GOODLAND       CLOUDY    66  64  93 NW5       29.99R
HILL CITY      CLOUDY    70  67  90 E8        29.90F
NORTON         DRIZZLE   70  61  73 S5G23     29.92F
PHILLIPSBURG   TSTM      70  68  94 NW10G20   29.96S
SMITH CENTER   MOCLDY    75  61  60 W20G28    29.93R
BELOIT         PTCLDY    82  68  61 NE7       29.86S
HAYS           CLOUDY    73  66  78 S5        29.91R
RUSSELL        CLOUDY    81  67  62 S8        29.85F
CONCORDIA      PTCLDY    80  71  74 E7        29.88R
SALINA         LGT RAIN  87  66  49 SE5       29.86R
TOPEKA         CLOUDY    84  71  65 CALM      29.89R



USA.gov is the U.S. government's official web portal to all federal, state and local government web resources and services.